Location: Unspecified
(43.4680°N, 87.1740°E)
Time: 03:50:34
(UTC+00:00)

USA 245 - Pass Details

Date: 17 April 2021
Orbit: 266 x 984 km, 97.9° (Epoch: 10 May)

Event Time Altitude Azimuth Distance (km) Brightness Sun altitude
Exits shadow 15:13:17 72° 70° (ENE) 602 3.3 -22.4°
Drops below altitude 10° 15:16:51 10° 352° (N) 1,685 6.5 -22.9°
Sets 15:18:42 0° 350° (N) 2,464 7.5 -23.2°
